#�ϑ�����,���ϕ���,���ϕ���,�ő啗��,�ő啗����������,�ő�u�ԕ���,�ő�u�ԕ�����������
#(�N����),(m/s)   ,(16����),(m/s)   ,(16����)        ,(m/s)       ,(16����)            
2012/9/8 0:01,1.8,2,1.8,2,2.4,3
2012/9/8 0:02,1.8,2,1.8,2,2,2
2012/9/8 0:03,1.7,2,1.8,2,2.4,1
2012/9/8 0:04,1.6,2,1.7,2,1.6,2
2012/9/8 0:05,1.7,2,1.7,2,2.6,3
2012/9/8 0:06,1.7,2,1.7,2,2.2,2
2012/9/8 0:07,1.6,2,1.7,2,2.2,3
2012/9/8 0:08,1.7,2,1.7,2,2.6,3
2012/9/8 0:09,1.7,3,1.7,2,2.7,2
2012/9/8 0:10,1.6,2,1.7,2,2.1,3
2012/9/8 0:11,1.6,2,1.6,2,2.5,3
2012/9/8 0:12,1.6,2,1.6,2,2.6,3
2012/9/8 0:13,1.6,2,1.6,2,2.1,3
2012/9/8 0:14,1.7,2,1.7,2,2.9,3
2012/9/8 0:15,1.7,2,1.7,2,2.7,3
2012/9/8 0:16,1.6,2,1.7,2,1.6,3
2012/9/8 0:17,1.6,2,1.6,2,1.8,2
2012/9/8 0:18,1.6,2,1.6,2,2.5,3
2012/9/8 0:19,1.5,2,1.6,3,2.5,3
2012/9/8 0:20,1.5,2,1.5,2,1.9,2
2012/9/8 0:21,1.4,2,1.5,2,1.6,2
2012/9/8 0:22,1.3,2,1.4,2,1.9,1
2012/9/8 0:23,1.4,2,1.4,2,2.5,3
2012/9/8 0:24,1.2,2,1.4,2,1.8,1
2012/9/8 0:25,1.2,2,1.2,2,2.7,2
2012/9/8 0:26,1.2,2,1.3,2,1.6,2
2012/9/8 0:27,1.3,2,1.3,2,2.5,3
2012/9/8 0:28,1.3,2,1.3,2,2.7,3
2012/9/8 0:29,1.3,2,1.3,2,1.6,3
2012/9/8 0:30,1.3,2,1.3,2,2.7,2
2012/9/8 0:31,1.4,2,1.4,2,2.7,2
2012/9/8 0:32,1.4,2,1.4,2,3,2
2012/9/8 0:33,1.4,2,1.4,2,2,2
2012/9/8 0:34,1.4,2,1.4,2,2,1
2012/9/8 0:35,1.4,2,1.4,2,2.2,3
2012/9/8 0:36,1.5,2,1.5,2,2.9,2
2012/9/8 0:37,1.5,2,1.5,2,2.7,3
2012/9/8 0:38,1.5,2,1.5,2,3.1,4
2012/9/8 0:39,1.6,2,1.6,2,2.7,3
2012/9/8 0:40,1.6,2,1.7,2,2.4,3
2012/9/8 0:41,1.6,2,1.6,2,2.6,2
2012/9/8 0:42,1.7,2,1.7,2,3.1,3
2012/9/8 0:43,1.8,2,1.8,2,2.5,3
2012/9/8 0:44,1.9,2,1.9,2,3.1,3
2012/9/8 0:45,2,2,2,2,3.6,3
2012/9/8 0:46,2.2,3,2.2,3,3.6,3
2012/9/8 0:47,2.2,3,2.2,3,3.2,2
2012/9/8 0:48,2.2,3,2.2,3,3,3
2012/9/8 0:49,2.2,3,2.2,3,3.1,3
2012/9/8 0:50,2.3,3,2.3,3,3.2,4
2012/9/8 0:51,2.3,3,2.3,3,2.9,3
2012/9/8 0:52,2.3,3,2.3,3,3.9,2
2012/9/8 0:53,2.4,3,2.4,3,4.4,2
2012/9/8 0:54,2.4,3,2.4,3,3.7,4
2012/9/8 0:55,2.3,3,2.4,3,2.7,3
2012/9/8 0:56,2.2,3,2.3,3,3.5,3
2012/9/8 0:57,2.3,3,2.3,3,4.2,3
2012/9/8 0:58,2.4,3,2.4,3,3.9,2
2012/9/8 0:59,2.5,3,2.5,3,4.1,2
2012/9/8 1:00,2.5,2,2.5,3,4.3,3
2012/9/8 1:01,2.5,2,2.5,3,4.5,2
2012/9/8 1:02,2.7,2,2.7,2,5.1,3
2012/9/8 1:03,2.6,2,2.7,2,3.7,3
2012/9/8 1:04,2.6,2,2.7,2,4.7,1
2012/9/8 1:05,2.6,2,2.7,2,3.5,3
2012/9/8 1:06,2.6,2,2.6,2,2.6,2
2012/9/8 1:07,2.6,2,2.6,2,3.5,3
2012/9/8 1:08,2.5,2,2.6,2,4.2,2
2012/9/8 1:09,2.5,2,2.5,2,3.2,2
2012/9/8 1:10,2.4,2,2.4,2,3.3,2
2012/9/8 1:11,2.5,2,2.5,2,4.8,2
2012/9/8 1:12,2.5,2,2.5,2,5.1,2
2012/9/8 1:13,2.5,2,2.5,2,4.1,3
2012/9/8 1:14,2.6,2,2.6,2,4.4,3
2012/9/8 1:15,2.5,2,2.6,2,2.4,2
2012/9/8 1:16,2.6,2,2.6,2,3.2,3
2012/9/8 1:17,2.5,2,2.6,2,3.9,2
2012/9/8 1:18,2.7,2,2.7,2,5.1,3
2012/9/8 1:19,2.7,2,2.7,2,4.2,3
2012/9/8 1:20,2.8,2,2.8,2,3.9,3
2012/9/8 1:21,2.8,2,2.8,2,5.5,2
2012/9/8 1:22,2.8,2,2.8,2,5.5,3
2012/9/8 1:23,2.9,2,2.9,2,4.9,3
2012/9/8 1:24,2.9,2,2.9,2,5.2,3
2012/9/8 1:25,3.2,3,3.2,3,6.3,3
2012/9/8 1:26,3.3,3,3.3,3,4.1,3
2012/9/8 1:27,3.3,3,3.3,3,4.3,2
2012/9/8 1:28,3.2,2,3.3,3,5.4,2
2012/9/8 1:29,3.2,2,3.2,3,3.7,3
2012/9/8 1:30,3.2,2,3.2,3,3.9,3
2012/9/8 1:31,3.1,2,3.2,3,3.7,2
2012/9/8 1:32,2.9,2,3.1,3,3.2,3
2012/9/8 1:33,2.8,2,2.9,3,5.5,3
2012/9/8 1:34,2.9,2,2.9,3,4.2,3
2012/9/8 1:35,2.7,2,2.8,3,3.8,2
2012/9/8 1:36,2.7,2,2.7,3,4.2,3
2012/9/8 1:37,2.7,2,2.7,3,3.8,3
2012/9/8 1:38,2.7,2,2.7,2,4.5,2
2012/9/8 1:39,2.7,2,2.7,2,4.3,3
2012/9/8 1:40,2.7,2,2.8,2,4.2,3
2012/9/8 1:41,2.7,2,2.7,2,3.9,3
2012/9/8 1:42,2.9,2,2.9,2,5.1,3
2012/9/8 1:43,2.9,3,2.9,2,4.5,2
2012/9/8 1:44,2.8,3,2.9,2,3.2,3
2012/9/8 1:45,2.8,3,2.8,2,3.6,3
2012/9/8 1:46,2.7,3,2.8,2,2.7,3
2012/9/8 1:47,2.6,3,2.7,2,2.4,3
2012/9/8 1:48,2.5,3,2.5,2,2,3
2012/9/8 1:49,2.3,3,2.4,2,2.2,3
2012/9/8 1:50,2.2,3,2.3,2,2.5,3
2012/9/8 1:51,2.1,3,2.2,2,2.4,4
2012/9/8 1:52,1.9,3,2,2,3.5,3
2012/9/8 1:53,1.7,3,1.9,3,3.6,2
2012/9/8 1:54,1.8,3,1.8,3,3.8,4
2012/9/8 1:55,1.8,3,1.8,3,3.3,4
2012/9/8 1:56,1.8,3,1.8,3,3.2,3
2012/9/8 1:57,1.9,3,1.9,3,2.9,3
2012/9/8 1:58,2,3,2,3,3.1,3
2012/9/8 1:59,2,3,2,3,2.2,3
2012/9/8 2:00,2,3,2,3,2.6,3
2012/9/8 2:01,2.2,3,2.2,3,4.7,3
2012/9/8 2:02,2.4,3,2.4,3,4.8,3
2012/9/8 2:03,2.5,3,2.5,3,3.1,4
2012/9/8 2:04,2.4,3,2.4,3,3.6,3
2012/9/8 2:05,2.5,3,2.5,3,3.9,3
2012/9/8 2:06,2.4,3,2.5,3,3.3,4
2012/9/8 2:07,2.4,3,2.4,3,3.5,3
2012/9/8 2:08,2.5,3,2.5,3,3.8,3
2012/9/8 2:09,2.6,3,2.6,3,3.6,3
2012/9/8 2:10,2.7,3,2.7,3,3.2,2
2012/9/8 2:11,2.6,3,2.7,3,3.6,3
2012/9/8 2:12,2.5,3,2.6,3,3.9,3
2012/9/8 2:13,2.6,3,2.6,3,3.8,3
2012/9/8 2:14,2.5,3,2.5,3,3.2,3
2012/9/8 2:15,2.4,3,2.5,3,3.3,3
2012/9/8 2:16,2.3,3,2.4,3,1.9,3
2012/9/8 2:17,2.3,3,2.3,3,3.3,3
2012/9/8 2:18,2.2,3,2.3,3,3.2,4
2012/9/8 2:19,2.2,3,2.2,3,5,2
2012/9/8 2:20,2.2,3,2.2,3,3.7,4
2012/9/8 2:21,2.2,3,2.2,3,3.8,3
2012/9/8 2:22,2.1,2,2.2,3,3,4
2012/9/8 2:23,2.2,2,2.2,3,4.2,3
2012/9/8 2:24,2.2,2,2.2,3,3.7,3
2012/9/8 2:25,2.3,2,2.3,3,3.5,2
2012/9/8 2:26,2.4,2,2.4,2,3.3,3
2012/9/8 2:27,2.5,2,2.5,2,4.7,4
2012/9/8 2:28,2.6,3,2.6,2,3.9,2
2012/9/8 2:29,2.5,3,2.6,2,3,4
2012/9/8 2:30,2.5,2,2.5,2,3.2,3
2012/9/8 2:31,2.5,3,2.5,2,3.5,3
2012/9/8 2:32,2.5,2,2.5,2,3.1,2
2012/9/8 2:33,2.4,2,2.5,2,2.7,3
2012/9/8 2:34,2.4,2,2.4,2,4.2,3
2012/9/8 2:35,2.4,2,2.4,2,3.7,3
2012/9/8 2:36,2.4,2,2.4,2,3.7,2
2012/9/8 2:37,2.3,2,2.4,2,3.8,2
2012/9/8 2:38,2.2,2,2.3,3,2.6,5
2012/9/8 2:39,2.3,2,2.3,3,3.9,3
2012/9/8 2:40,2.3,3,2.3,3,3.2,3
2012/9/8 2:41,2.4,3,2.4,2,3.8,3
2012/9/8 2:42,2.4,3,2.4,2,3.5,3
2012/9/8 2:43,2.5,3,2.5,3,3.9,3
2012/9/8 2:44,2.4,3,2.5,3,3.5,2
2012/9/8 2:45,2.3,3,2.4,3,3.8,3
2012/9/8 2:46,2.4,3,2.4,3,3.6,3
2012/9/8 2:47,2.4,3,2.4,3,3.7,3
2012/9/8 2:48,2.4,3,2.4,3,3.3,3
2012/9/8 2:49,2.4,3,2.4,3,3.7,3
2012/9/8 2:50,2.3,3,2.4,3,2.6,3
2012/9/8 2:51,2.2,3,2.3,3,3.2,3
2012/9/8 2:52,2.2,3,2.3,3,4.2,3
2012/9/8 2:53,2.2,3,2.3,3,3.2,2
2012/9/8 2:54,2.3,3,2.3,3,3.1,4
2012/9/8 2:55,2.3,3,2.3,3,3,4
2012/9/8 2:56,2.3,3,2.3,3,3.8,3
2012/9/8 2:57,2.2,3,2.3,3,2.7,3
2012/9/8 2:58,2.3,3,2.3,3,3,3
2012/9/8 2:59,2.2,3,2.3,3,3.5,3
2012/9/8 3:00,2.3,3,2.3,3,3,5
2012/9/8 3:01,2.2,3,2.3,3,2.5,2
2012/9/8 3:02,2.2,4,2.2,3,2.2,5
2012/9/8 3:03,2,4,2.2,3,2.2,3
2012/9/8 3:04,1.9,4,2,3,1.8,4
2012/9/8 3:05,1.9,4,1.9,3,2,5
2012/9/8 3:06,1.7,4,1.9,3,1.9,4
2012/9/8 3:07,1.7,4,1.7,3,2.1,3
2012/9/8 3:08,1.8,4,1.8,3,4.7,4
2012/9/8 3:09,1.8,4,1.9,3,4.7,4
2012/9/8 3:10,1.9,4,1.9,3,3.8,6
2012/9/8 3:11,1.8,4,1.9,3,2.2,4
2012/9/8 3:12,1.9,4,1.9,4,3.1,4
2012/9/8 3:13,2,4,2,4,3.1,5
2012/9/8 3:14,2,4,2,4,3.3,5
2012/9/8 3:15,2,4,2.1,4,2.5,5
2012/9/8 3:16,2.1,4,2.1,4,2.7,3
2012/9/8 3:17,2.2,4,2.2,4,3.5,3
2012/9/8 3:18,2.1,4,2.2,4,2.9,4
2012/9/8 3:19,2.1,4,2.1,4,3.3,4
2012/9/8 3:20,2,4,2.1,4,3,4
2012/9/8 3:21,2,4,2,4,4.2,4
2012/9/8 3:22,2.1,4,2.1,4,4.3,3
2012/9/8 3:23,2.1,3,2.1,4,2.6,4
2012/9/8 3:24,2,3,2.1,4,2.6,4
2012/9/8 3:25,2.1,3,2.1,4,4.2,3
2012/9/8 3:26,2.2,3,2.2,4,3,3
2012/9/8 3:27,2.1,3,2.2,4,3.1,5
2012/9/8 3:28,2.2,3,2.2,3,4.1,3
2012/9/8 3:29,2.3,3,2.3,3,4.5,5
2012/9/8 3:30,2.5,3,2.5,3,4.7,3
2012/9/8 3:31,2.6,3,2.6,3,5.1,3
2012/9/8 3:32,2.6,3,2.7,3,3.5,4
2012/9/8 3:33,2.7,3,2.7,3,3.6,4
2012/9/8 3:34,2.8,3,2.8,3,3.6,2
2012/9/8 3:35,2.8,3,2.8,3,3,5
2012/9/8 3:36,2.8,4,2.8,3,3.3,4
2012/9/8 3:37,2.8,4,2.8,3,2.9,3
2012/9/8 3:38,2.7,4,2.8,3,3.2,5
2012/9/8 3:39,2.6,4,2.6,3,3.5,5
2012/9/8 3:40,2.4,4,2.5,3,2.2,5
2012/9/8 3:41,2.2,4,2.4,3,3.3,4
2012/9/8 3:42,2.1,4,2.2,3,3.3,4
2012/9/8 3:43,2.1,4,2.1,3,3.7,4
2012/9/8 3:44,2,4,2.1,3,2.7,5
2012/9/8 3:45,2,4,2,3,2.5,3
2012/9/8 3:46,2,4,2,4,2.6,3
2012/9/8 3:47,1.9,4,2,4,2.6,2
2012/9/8 3:48,2,4,2,4,3.2,3
2012/9/8 3:49,1.9,4,2,4,2.2,5
2012/9/8 3:50,2,4,2,4,3.1,4
2012/9/8 3:51,2,4,2,4,2.7,5
2012/9/8 3:52,2,4,2,4,3.1,5
2012/9/8 3:53,2,4,2,4,3.5,4
2012/9/8 3:54,2.1,4,2.1,4,4.7,5
2012/9/8 3:55,2.2,4,2.2,4,3.2,5
2012/9/8 3:56,2.2,4,2.2,4,3.2,5
2012/9/8 3:57,2.3,4,2.3,4,4.9,4
2012/9/8 3:58,2.4,4,2.4,4,4.8,4
2012/9/8 3:59,2.5,4,2.5,4,3.7,5
2012/9/8 4:00,2.5,4,2.5,4,3.8,4
2012/9/8 4:01,2.7,4,2.7,4,5.8,5
2012/9/8 4:02,2.8,4,2.8,4,4.7,5
2012/9/8 4:03,2.9,4,2.9,4,5.2,4
2012/9/8 4:04,2.9,4,2.9,4,3.9,3
2012/9/8 4:05,2.9,4,2.9,4,3.7,4
2012/9/8 4:06,2.9,4,2.9,4,3.6,3
2012/9/8 4:07,2.8,4,2.9,4,4.1,3
2012/9/8 4:08,2.8,4,2.8,4,4.3,3
2012/9/8 4:09,2.7,4,2.8,4,3.2,3
2012/9/8 4:10,2.8,4,2.8,4,3.3,3
2012/9/8 4:11,2.5,4,2.8,4,3,3
2012/9/8 4:12,2.5,4,2.5,4,3.8,5
2012/9/8 4:13,2.3,4,2.5,4,3.5,4
2012/9/8 4:14,2.3,4,2.3,4,3.7,5
2012/9/8 4:15,2.2,4,2.3,4,2.4,5
2012/9/8 4:16,2.1,4,2.2,4,3.5,3
2012/9/8 4:17,2.2,4,2.2,4,3.5,4
2012/9/8 4:18,2.1,4,2.1,4,2.6,4
2012/9/8 4:19,2.1,4,2.1,4,3.1,4
2012/9/8 4:20,2.1,4,2.1,4,2.4,3
2012/9/8 4:21,2.2,4,2.2,4,3.7,4
2012/9/8 4:22,2.2,4,2.2,4,3.3,4
2012/9/8 4:23,2.1,4,2.1,4,2.2,3
2012/9/8 4:24,1.9,4,2,4,2.2,3
2012/9/8 4:25,1.9,4,1.9,4,2.2,4
2012/9/8 4:26,1.9,4,1.9,4,2,4
2012/9/8 4:27,1.8,4,1.8,4,3.6,3
2012/9/8 4:28,1.9,3,1.9,4,3.6,3
2012/9/8 4:29,1.8,4,1.9,4,2.9,4
2012/9/8 4:30,1.9,4,1.9,4,2.4,4
2012/9/8 4:31,1.7,3,1.8,4,2.4,4
2012/9/8 4:32,1.7,4,1.7,4,3.8,3
2012/9/8 4:33,1.9,4,1.9,4,4.1,5
2012/9/8 4:34,2,4,2,4,3.7,5
2012/9/8 4:35,2.1,4,2.1,4,3.9,5
2012/9/8 4:36,2.2,4,2.2,4,2.9,5
2012/9/8 4:37,2.1,4,2.2,4,2.2,4
2012/9/8 4:38,2,4,2.1,4,2.1,2
2012/9/8 4:39,2,4,2,4,2.5,4
2012/9/8 4:40,2,4,2,4,2.4,2
2012/9/8 4:41,2,4,2,4,2.9,4
2012/9/8 4:42,2.1,4,2.1,4,4.2,4
2012/9/8 4:43,2,4,2.1,4,3.9,4
2012/9/8 4:44,1.9,4,2,4,2,4
2012/9/8 4:45,1.8,4,1.9,4,2.4,4
2012/9/8 4:46,1.9,4,1.9,4,3.1,5
2012/9/8 4:47,1.9,4,1.9,4,2.9,5
2012/9/8 4:48,2,4,2,4,3.2,4
2012/9/8 4:49,2,4,2.1,4,2.9,5
2012/9/8 4:50,2.1,4,2.1,4,3,5
2012/9/8 4:51,2.1,4,2.1,4,3.5,5
2012/9/8 4:52,2,4,2.1,4,3,7
2012/9/8 4:53,2,4,2,4,2.6,4
2012/9/8 4:54,2,5,2,4,2.2,5
2012/9/8 4:55,1.9,5,2,4,1.8,5
2012/9/8 4:56,1.9,5,1.9,4,3.5,4
2012/9/8 4:57,1.9,4,1.9,4,3,5
2012/9/8 4:58,1.8,4,1.9,4,2.4,5
2012/9/8 4:59,1.8,4,1.8,4,3.3,3
2012/9/8 5:00,1.9,5,1.9,4,3.6,4
2012/9/8 5:01,1.9,5,1.9,4,3.5,5
2012/9/8 5:02,1.9,4,1.9,4,2.6,5
2012/9/8 5:03,1.9,4,1.9,4,3.2,6
2012/9/8 5:04,2,4,2,5,3.5,5
2012/9/8 5:05,2,4,2,4,2.4,4
2012/9/8 5:06,2,4,2.1,4,2.4,4
2012/9/8 5:07,2,4,2,4,2.4,2
2012/9/8 5:08,1.9,4,2,4,2.2,4
2012/9/8 5:09,1.8,4,1.9,4,2,4
2012/9/8 5:10,1.7,4,1.8,4,1.3,4
2012/9/8 5:11,1.5,4,1.7,4,1.3,4
2012/9/8 5:12,1.5,4,1.5,4,2.2,5
2012/9/8 5:13,1.4,4,1.5,4,2,6
2012/9/8 5:14,1.3,4,1.4,4,2.1,5
2012/9/8 5:15,1.3,4,1.3,4,2,4
2012/9/8 5:16,1.2,4,1.3,4,1.8,5
2012/9/8 5:17,1.1,4,1.2,4,1,4
2012/9/8 5:18,1.1,4,1.1,4,1.6,4
2012/9/8 5:19,1,4,1.1,4,1.6,4
2012/9/8 5:20,1.1,4,1.1,4,2,6
2012/9/8 5:21,1.1,4,1.1,4,1.8,3
2012/9/8 5:22,1.2,4,1.2,4,2.4,3
2012/9/8 5:23,1.2,4,1.2,4,3.1,4
2012/9/8 5:24,1.4,4,1.4,4,3.9,5
2012/9/8 5:25,1.5,4,1.5,4,3.3,4
2012/9/8 5:26,1.6,4,1.6,4,3.6,3
2012/9/8 5:27,1.7,4,1.7,4,2.6,5
2012/9/8 5:28,1.7,4,1.7,4,2.9,3
2012/9/8 5:29,1.8,4,1.8,3,1.9,2
2012/9/8 5:30,1.8,4,1.9,4,4.2,4
2012/9/8 5:31,1.9,4,1.9,4,2.7,3
2012/9/8 5:32,1.9,3,1.9,4,3.2,4
2012/9/8 5:33,2,3,2,3,4.1,3
2012/9/8 5:34,2,3,2,3,3.5,3
2012/9/8 5:35,2,3,2,3,3.5,3
2012/9/8 5:36,2,3,2,3,3.5,3
2012/9/8 5:37,2.1,3,2.1,3,3.5,3
2012/9/8 5:38,2.1,3,2.1,3,3.6,3
2012/9/8 5:39,2.2,3,2.2,3,3.5,2
2012/9/8 5:40,2.3,3,2.3,3,3.7,3
2012/9/8 5:41,2.3,3,2.3,3,3.2,3
2012/9/8 5:42,2.4,3,2.4,3,2.9,2
2012/9/8 5:43,2.3,3,2.4,3,3.2,3
2012/9/8 5:44,2.3,3,2.3,3,3.1,3
2012/9/8 5:45,2.3,3,2.3,3,3,3
2012/9/8 5:46,2.3,3,2.3,3,2.9,4
2012/9/8 5:47,2.3,3,2.3,3,3,3
2012/9/8 5:48,2.3,3,2.3,3,3,3
2012/9/8 5:49,2.3,3,2.3,3,2.2,2
2012/9/8 5:50,2.1,3,2.2,3,2.6,3
2012/9/8 5:51,2,3,2.1,3,2.9,3
2012/9/8 5:52,2,3,2,3,4.3,2
2012/9/8 5:53,2.1,3,2.1,3,3.7,2
2012/9/8 5:54,2.1,3,2.1,3,3.5,3
2012/9/8 5:55,2,3,2.1,3,3.3,3
2012/9/8 5:56,2,3,2,3,3.5,3
2012/9/8 5:57,2.1,3,2.1,3,3.2,3
2012/9/8 5:58,2,3,2.1,3,2.7,3
2012/9/8 5:59,2,3,2,3,2.7,3
2012/9/8 6:00,2,3,2.1,3,2.2,2
2012/9/8 6:01,2.1,3,2.1,3,2.4,2
2012/9/8 6:02,2,3,2.1,3,2.5,2
2012/9/8 6:03,2,3,2,3,2.1,4
2012/9/8 6:04,1.9,3,2,3,2.2,3
2012/9/8 6:05,1.9,3,1.9,3,3,4
2012/9/8 6:06,1.8,3,1.9,3,1.8,3
2012/9/8 6:07,1.8,3,1.8,3,2.2,2
2012/9/8 6:08,1.9,3,1.9,3,3.9,5
2012/9/8 6:09,1.7,3,1.8,3,2.2,5
2012/9/8 6:10,1.6,3,1.7,3,1.6,4
2012/9/8 6:11,1.6,4,1.6,3,2.1,4
2012/9/8 6:12,1.6,4,1.6,3,2.9,3
2012/9/8 6:13,1.6,4,1.6,3,3,5
2012/9/8 6:14,1.7,4,1.7,3,3.6,5
2012/9/8 6:15,1.7,4,1.7,3,3.6,5
2012/9/8 6:16,1.9,4,1.9,3,4.3,5
2012/9/8 6:17,1.9,4,1.9,3,3.9,5
2012/9/8 6:18,1.9,4,1.9,4,4.1,4
2012/9/8 6:19,1.9,4,1.9,4,2.4,3
2012/9/8 6:20,2.1,4,2.1,4,3.3,5
2012/9/8 6:21,2.1,4,2.1,4,3,5
2012/9/8 6:22,2.2,4,2.2,4,3.2,4
2012/9/8 6:23,2.2,4,2.2,4,3.5,6
2012/9/8 6:24,2.2,5,2.2,4,3.9,6
2012/9/8 6:25,2.2,5,2.2,4,3.8,6
2012/9/8 6:26,2.2,5,2.2,4,4.3,5
2012/9/8 6:27,2.3,5,2.3,5,4.4,4
2012/9/8 6:28,2.4,5,2.4,5,4.7,5
2012/9/8 6:29,2.5,5,2.5,5,3.5,4
2012/9/8 6:30,2.6,5,2.6,5,4.2,5
2012/9/8 6:31,2.7,5,2.7,5,3.9,5
2012/9/8 6:32,2.7,5,2.7,5,3.8,4
2012/9/8 6:33,2.8,4,2.8,4,4.3,3
2012/9/8 6:34,2.8,4,2.9,4,4.3,4
2012/9/8 6:35,2.8,4,2.8,4,3.2,4
2012/9/8 6:36,2.8,4,2.8,4,4.7,5
2012/9/8 6:37,2.8,4,2.8,4,3.9,4
2012/9/8 6:38,2.7,4,2.7,4,2.7,7
2012/9/8 6:39,2.7,4,2.7,4,3.3,4
2012/9/8 6:40,2.5,4,2.6,4,3.2,5
2012/9/8 6:41,2.5,4,2.5,4,4.5,5
2012/9/8 6:42,2.5,4,2.5,4,4.3,4
2012/9/8 6:43,2.5,4,2.5,4,3.6,3
2012/9/8 6:44,2.3,4,2.4,4,2.7,5
2012/9/8 6:45,2.4,4,2.4,4,3.8,5
2012/9/8 6:46,2.4,4,2.4,4,4.8,4
2012/9/8 6:47,2.4,4,2.4,4,3.8,5
2012/9/8 6:48,2.4,4,2.4,4,4.4,3
2012/9/8 6:49,2.5,4,2.5,4,4.5,3
2012/9/8 6:50,2.6,4,2.6,4,4.9,4
2012/9/8 6:51,2.7,4,2.7,4,4.8,4
2012/9/8 6:52,2.7,4,2.7,4,4.4,4
2012/9/8 6:53,2.6,4,2.7,4,3.6,3
2012/9/8 6:54,2.9,4,2.9,4,5.1,3
2012/9/8 6:55,2.9,4,2.9,4,4.8,4
2012/9/8 6:56,2.8,4,2.9,4,3.6,2
2012/9/8 6:57,2.7,4,2.8,4,4.2,3
2012/9/8 6:58,2.8,4,2.8,4,4.3,5
2012/9/8 6:59,2.8,4,2.8,4,5.2,3
2012/9/8 7:00,2.9,4,2.9,4,4.7,4
2012/9/8 7:01,2.9,4,2.9,4,4.7,5
2012/9/8 7:02,2.9,4,2.9,4,3.9,3
2012/9/8 7:03,2.9,3,2.9,4,3.9,3
2012/9/8 7:04,2.7,3,2.9,4,3.5,4
2012/9/8 7:05,2.8,3,2.8,4,4.3,3
2012/9/8 7:06,2.8,4,2.8,4,3.6,3
2012/9/8 7:07,2.9,4,2.9,4,4.2,5
2012/9/8 7:08,2.8,3,2.9,4,3.6,4
2012/9/8 7:09,2.8,3,2.8,4,3.8,3
2012/9/8 7:10,2.7,3,2.7,4,4.2,3
2012/9/8 7:11,2.6,3,2.7,4,3.9,3
2012/9/8 7:12,2.7,3,2.7,4,3.8,3
2012/9/8 7:13,2.8,3,2.8,3,3.8,3
2012/9/8 7:14,2.8,3,2.8,4,3.7,3
2012/9/8 7:15,2.9,3,2.9,4,5.6,4
2012/9/8 7:16,3,3,3,3,4.5,3
2012/9/8 7:17,3,4,3,3,4.7,4
2012/9/8 7:18,3,4,3.1,4,3.9,4
2012/9/8 7:19,3,4,3.1,4,2.2,3
2012/9/8 7:20,2.9,4,3,4,3.5,5
2012/9/8 7:21,2.8,4,2.9,4,4.7,4
2012/9/8 7:22,2.6,4,2.8,4,2.9,3
2012/9/8 7:23,2.6,4,2.6,4,3.7,2
2012/9/8 7:24,2.7,4,2.7,4,5,5
2012/9/8 7:25,2.5,4,2.7,4,3.8,5
2012/9/8 7:26,2.4,4,2.5,4,2.6,4
2012/9/8 7:27,2.3,4,2.4,4,2.6,5
2012/9/8 7:28,2.2,4,2.3,4,2,4
2012/9/8 7:29,2.1,4,2.2,4,1.8,6
2012/9/8 7:30,2,5,2.1,4,1.8,6
2012/9/8 7:31,1.9,4,2,4,3,2
2012/9/8 7:32,2.1,4,2.1,4,4.3,4
2012/9/8 7:33,2.1,5,2.1,4,3.9,5
2012/9/8 7:34,1.9,4,2.1,4,2.7,4
2012/9/8 7:35,1.8,4,1.9,4,2.1,3
2012/9/8 7:36,1.9,4,1.9,4,3.8,4
2012/9/8 7:37,2,4,2,4,3.1,3
2012/9/8 7:38,2,4,2,4,3.8,4
2012/9/8 7:39,2.2,4,2.2,4,3.8,5
2012/9/8 7:40,2.3,4,2.3,4,2.9,5
2012/9/8 7:41,2.4,4,2.4,4,3.8,3
2012/9/8 7:42,2.3,4,2.4,4,3.9,4
2012/9/8 7:43,2.3,4,2.3,4,3.5,5
2012/9/8 7:44,2.3,4,2.3,4,3.3,5
2012/9/8 7:45,2.3,4,2.3,4,2.2,6
2012/9/8 7:46,2.1,4,2.3,4,1.8,3
2012/9/8 7:47,2,4,2.1,4,3.6,3
2012/9/8 7:48,2,4,2.1,4,2.7,4
2012/9/8 7:49,1.9,4,2,4,2.1,3
2012/9/8 7:50,2,4,2,4,4.4,3
2012/9/8 7:51,1.8,4,1.9,4,2.6,3
2012/9/8 7:52,1.9,4,1.9,4,3.1,4
2012/9/8 7:53,1.8,4,1.8,4,3.1,5
2012/9/8 7:54,1.9,3,1.9,4,4.1,4
2012/9/8 7:55,2,3,2,4,4.1,4
2012/9/8 7:56,2.2,3,2.2,3,4.1,4
2012/9/8 7:57,2.3,4,2.3,4,3.5,6
2012/9/8 7:58,2.3,4,2.3,4,2.7,5
2012/9/8 7:59,2.3,4,2.3,4,3.3,3
2012/9/8 8:00,2.3,4,2.4,4,3.6,3
2012/9/8 8:01,2.3,4,2.3,4,3.7,5
2012/9/8 8:02,2.4,4,2.4,4,4.5,4
2012/9/8 8:03,2.5,4,2.5,4,3.8,5
2012/9/8 8:04,2.4,4,2.5,4,3.3,7
2012/9/8 8:05,2.3,4,2.4,4,2.9,3
2012/9/8 8:06,2.2,4,2.3,4,2.5,6
2012/9/8 8:07,2.1,4,2.2,4,3.2,4
2012/9/8 8:08,2.1,4,2.1,4,3.9,5
2012/9/8 8:09,2.2,4,2.2,4,4.4,6
2012/9/8 8:10,2.2,4,2.3,4,4.2,5
2012/9/8 8:11,2.2,5,2.3,4,3.6,7
2012/9/8 8:12,2.2,5,2.2,4,3.6,5
2012/9/8 8:13,2.1,5,2.2,4,4.8,4
2012/9/8 8:14,2.3,5,2.3,4,4.9,4
2012/9/8 8:15,2.5,5,2.5,5,5.2,4
2012/9/8 8:16,2.6,5,2.6,5,3.9,5
2012/9/8 8:17,2.6,5,2.6,5,2.9,5
2012/9/8 8:18,2.7,5,2.7,5,5.1,4
2012/9/8 8:19,2.7,5,2.7,5,5.5,4
2012/9/8 8:20,2.9,5,2.9,5,5.6,4
2012/9/8 8:21,2.9,5,2.9,5,4.5,5
2012/9/8 8:22,3,5,3,5,5.2,4
2012/9/8 8:23,3.1,5,3.1,5,6.2,4
2012/9/8 12:24,3.2,6,3.2,6,4.8,6
2012/9/8 12:25,3.1,6,3.7,6,4.8,6
2012/9/8 12:26,2.6,6,3.1,6,3.1,6
2012/9/8 12:27,2.8,6,2.8,6,4.2,6
2012/9/8 12:28,2.9,6,3,6,5.2,6
2012/9/8 12:29,3,6,3,6,4.3,8
2012/9/8 12:30,2.9,6,3,6,3.7,6
2012/9/8 12:31,2.8,6,2.8,6,4.1,7
2012/9/8 12:32,2.7,6,2.8,6,3.1,7
2012/9/8 12:33,2.6,6,2.7,6,3.2,9
2012/9/8 12:34,2.7,6,2.7,6,4.5,6
2012/9/8 12:35,2.6,6,2.6,6,3.9,6
2012/9/8 12:36,2.6,7,2.7,6,4.2,8
2012/9/8 12:37,2.6,7,2.6,6,4.4,6
2012/9/8 12:38,2.4,7,2.5,6,2.4,8
2012/9/8 12:39,2.3,6,2.3,6,3.9,5
2012/9/8 12:40,2.3,6,2.3,6,3.7,6
2012/9/8 12:41,2.3,6,2.4,6,3.9,4
2012/9/8 12:42,2.4,6,2.4,6,4.3,6
2012/9/8 12:43,2.5,6,2.5,6,3.8,5
2012/9/8 12:44,2.5,6,2.6,6,5.4,6
2012/9/8 12:45,2.5,6,2.6,6,4.3,6
2012/9/8 12:46,2.6,6,2.6,7,3.8,8
2012/9/8 12:47,2.5,6,2.6,6,2.7,6
2012/9/8 12:48,2.5,6,2.5,6,2.7,6
2012/9/8 12:49,2.4,6,2.5,6,3.1,8
2012/9/8 12:50,2.3,6,2.4,6,2.6,6
2012/9/8 12:51,2.2,7,2.3,6,3.6,8
2012/9/8 12:52,2.1,7,2.2,6,3.9,8
2012/9/8 12:53,2.3,7,2.3,6,6.4,7
2012/9/8 12:54,2.3,7,2.3,6,5.7,6
2012/9/8 12:55,2.4,7,2.4,6,5.2,6
2012/9/8 12:56,2.6,7,2.6,6,6.8,6
2012/9/8 12:57,2.8,7,2.8,7,6.5,6
2012/9/8 12:58,3,6,3,6,5.5,6
2012/9/8 12:59,3,6,3,6,3.2,6
2012/9/8 13:00,3.3,6,3.3,6,5.1,7
2012/9/8 13:01,3.3,6,3.4,6,4.4,7
2012/9/8 13:02,3.5,6,3.5,6,5.8,6
2012/9/8 13:03,3.4,6,3.5,6,4.2,6
2012/9/8 13:04,3.4,6,3.4,6,5.4,6
2012/9/8 13:05,3.3,6,3.4,6,4.1,6
2012/9/8 13:06,3.1,6,3.3,6,2.7,5
2012/9/8 13:07,2.9,6,3.1,6,3.1,7
2012/9/8 13:08,2.8,6,2.8,6,4.8,6
2012/9/8 13:09,2.9,6,2.9,6,3.9,5
2012/9/8 13:10,2.7,6,2.9,6,4.1,5
2012/9/8 13:11,2.6,6,2.7,6,2.5,7
2012/9/8 13:12,2.5,6,2.6,6,3.6,4
2012/9/8 13:13,2.4,6,2.4,6,3.2,6
2012/9/8 13:14,2.3,6,2.4,6,4.7,7
2012/9/8 13:15,2.4,6,2.4,6,5.7,7
2012/9/8 13:16,2.7,7,2.7,6,7.1,8
2012/9/8 13:17,2.9,7,2.9,6,6.3,7
2012/9/8 13:18,3.1,7,3.1,7,5.2,8
2012/9/8 13:19,3.1,7,3.1,7,5.7,7
2012/9/8 13:20,3.3,7,3.3,7,6.1,6
2012/9/8 13:21,3.6,7,3.6,7,7.2,8
2012/9/8 13:22,3.9,7,3.9,7,7.1,8
2012/9/8 13:23,3.9,7,3.9,7,4.4,6
2012/9/8 13:24,3.8,7,3.9,7,4.1,6
2012/9/8 13:25,3.6,7,3.8,7,4.7,6
2012/9/8 13:26,3.4,7,3.6,7,3.7,7
2012/9/8 13:27,3.3,7,3.4,7,4.3,7
2012/9/8 13:28,3,7,3.3,7,3.5,8
2012/9/8 13:29,2.9,7,3,7,4.9,8
2012/9/8 13:30,2.9,7,2.9,7,7,8
2012/9/8 13:31,2.7,7,2.9,7,5.5,9
2012/9/8 13:32,2.7,7,2.7,7,6.7,7
2012/9/8 13:33,2.8,7,2.8,7,6,6
2012/9/8 13:34,2.9,7,2.9,7,6,8
2012/9/8 13:35,2.9,7,3,7,4.9,9
2012/9/8 13:36,2.9,7,3,7,4.8,8
2012/9/8 13:37,3,7,3,7,4.8,8
2012/9/8 13:38,3.3,7,3.3,7,5.5,6
2012/9/8 13:39,3.4,7,3.4,7,3.8,7
2012/9/8 13:40,3.2,7,3.4,7,4.3,6
2012/9/8 13:41,3.3,6,3.3,7,6.4,6
2012/9/8 13:42,3.2,6,3.4,7,5.7,6
2012/9/8 13:43,3.2,6,3.3,7,6,6
2012/9/8 13:44,3.2,6,3.2,7,5.1,6
2012/9/8 13:45,3.2,6,3.2,7,4.9,7
2012/9/8 13:46,3.3,6,3.3,7,6.3,8
2012/9/8 13:47,3.4,6,3.4,7,7,8
2012/9/8 13:48,3.3,7,3.4,7,5,7
2012/9/8 13:49,3.4,7,3.4,7,5.1,7
2012/9/8 13:50,3.5,7,3.5,7,4.3,7
2012/9/8 13:51,3.4,7,3.5,7,5.1,6
2012/9/8 13:52,3.4,7,3.4,7,4.9,7
2012/9/8 13:53,3.4,7,3.5,7,5.2,7
2012/9/8 13:54,3.3,7,3.3,7,6.2,8
2012/9/8 13:55,3.2,7,3.3,7,3.6,8
2012/9/8 13:56,3,7,3.2,7,3.9,8
2012/9/8 13:57,2.7,7,3,7,3.8,8
2012/9/8 13:58,2.7,7,2.7,7,6.8,8
2012/9/8 13:59,2.8,7,2.8,7,6.4,9
2012/9/8 14:00,2.8,8,2.8,7,5.7,7
2012/9/8 14:01,2.8,8,2.8,7,5.6,7
2012/9/8 14:02,2.8,7,2.9,7,5.4,6
2012/9/8 14:03,2.8,8,2.8,7,5.6,7
2012/9/8 14:04,2.9,7,2.9,7,6.4,8
2012/9/8 16:46,2.1,5,2.1,5,2.9,9
2012/9/8 16:47,1.9,7,2.1,5,2.9,9
2012/9/8 16:48,2.6,7,2.6,7,3.9,7
2012/9/8 16:49,2.1,7,2.5,7,2.7,8
2012/9/8 16:50,1.9,7,2,7,2.5,7
2012/9/8 16:51,1.8,7,1.9,7,3,9
2012/9/8 16:52,1.8,7,1.9,7,4.4,7
2012/9/8 16:53,1.9,7,2,7,5.4,5
2012/9/8 16:54,1.9,7,1.9,7,3.9,7
2012/9/8 16:55,2.1,7,2.1,7,6.2,6
2012/9/8 16:56,2.2,7,2.2,7,6.3,6
2012/9/8 16:57,2.4,7,2.4,7,6.7,6
2012/9/8 16:58,2.5,7,2.5,7,5,7
2012/9/8 16:59,2.6,7,2.6,7,5.2,8
2012/9/8 17:00,2.8,7,2.8,7,4.4,7
2012/9/8 17:01,3,7,3,7,5.4,7
2012/9/8 17:02,3,7,3,7,3.5,8
2012/9/8 17:03,3,7,3,7,4.4,9
2012/9/8 17:04,3.1,7,3.2,7,6,7
2012/9/8 17:05,3,7,3.1,7,3.2,8
2012/9/8 17:06,2.8,7,2.9,7,3.1,7
2012/9/8 17:07,2.5,7,2.8,7,2.6,9
2012/9/8 17:08,2.5,7,2.5,7,4.2,7
2012/9/8 17:09,2.4,7,2.5,7,3.8,4
2012/9/8 17:10,2.3,7,2.4,7,4.5,6
2012/9/8 17:11,2.2,7,2.3,7,3.3,9
2012/9/8 17:12,2.1,7,2.1,7,3.1,7
2012/9/8 17:13,2.1,7,2.2,7,4.9,6
2012/9/8 17:14,2,7,2.1,7,2.5,10
2012/9/8 17:15,1.9,7,1.9,7,3.2,8
2012/9/8 17:16,1.9,7,2,7,3.1,9
2012/9/8 17:17,2,7,2,7,2.2,9
2012/9/8 17:18,1.8,8,2,7,3.1,9
2012/9/8 17:19,1.8,7,1.8,7,2.7,7
2012/9/8 17:20,1.7,7,1.8,7,3.3,8
2012/9/8 20:08,1.1,1,1.1,1,1.4,4
2012/9/8 20:09,1.3,2,1.3,2,2.4,4
2012/9/8 20:10,2,3,2,3,3.5,3
2012/9/8 20:11,2.4,3,2.4,3,4.5,4
2012/9/8 20:12,2.3,4,2.4,3,3.1,4
2012/9/8 20:13,2.4,3,2.4,3,4.2,3
2012/9/8 20:14,2.3,4,2.4,3,3.8,4
2012/9/8 20:15,2.3,4,2.3,3,3,5
2012/9/8 20:16,2.2,4,2.3,3,2.2,4
2012/9/8 20:17,2.1,4,2.2,3,1.8,3
2012/9/8 20:18,2,4,2.1,3,2,2
2012/9/8 20:19,2,4,2,3,2,3
2012/9/8 20:20,1.9,4,2,3,2.9,3
2012/9/8 20:21,1.8,3,1.9,3,2.7,4
2012/9/8 20:22,1.8,3,1.8,4,3.5,3
2012/9/8 20:23,1.9,3,1.9,4,4.5,3
2012/9/8 20:24,1.9,3,1.9,4,4.4,3
2012/9/8 20:25,2,3,2,4,4.4,3
2012/9/8 20:26,2.1,3,2.1,4,4.1,3
2012/9/8 20:27,2.2,3,2.2,3,3.7,3
2012/9/8 20:28,2.4,3,2.4,3,4.5,3
2012/9/8 20:29,2.6,3,2.6,3,3.8,4
2012/9/8 20:30,2.6,3,2.6,3,3.5,3
2012/9/8 20:31,2.6,3,2.6,3,3,3
2012/9/8 20:32,2.5,3,2.6,3,3.7,3
2012/9/8 20:33,2.5,3,2.5,3,4.5,3
2012/9/8 20:34,2.4,3,2.5,3,3.2,4
2012/9/8 20:35,2.2,3,2.4,3,1.5,3
2012/9/8 20:36,2.2,3,2.2,3,2.7,3
2012/9/8 20:37,2.2,3,2.2,3,3.5,3
2012/9/8 20:38,2,3,2.2,3,3.3,3
2012/9/8 20:39,2,3,2,3,3.6,4
2012/9/8 20:40,2,3,2,3,3.5,4
2012/9/8 20:41,2.2,3,2.2,3,3.9,2
2012/9/8 20:42,2.3,3,2.3,3,3.9,3
2012/9/8 20:43,2.3,3,2.3,3,3.9,3
2012/9/8 20:44,2.3,3,2.3,3,2.6,3
2012/9/8 20:45,2.5,3,2.5,3,4.2,4
2012/9/8 20:46,2.6,3,2.6,3,4.3,4
2012/9/8 20:47,2.5,4,2.6,3,3.8,6
2012/9/8 20:48,2.5,4,2.5,3,2.5,5
2012/9/8 20:49,2.4,4,2.4,3,3.8,3
2012/9/8 20:50,2.4,4,2.4,3,3.3,4
2012/9/8 20:51,2.3,4,2.4,3,3.1,3
2012/9/8 20:52,2.3,4,2.4,3,3,4
2012/9/8 20:53,2.2,4,2.3,3,2.2,4
2012/9/8 20:54,2.2,4,2.2,3,3.2,3
2012/9/8 20:55,2.1,4,2.2,3,3.1,3
2012/9/8 20:56,2.1,4,2.1,3,3.8,4
2012/9/8 20:57,2,3,2.1,4,2.6,4
2012/9/8 20:58,2.1,3,2.1,4,2.4,3
2012/9/8 20:59,2,3,2.1,4,2.2,5
2012/9/8 21:00,2,3,2,4,2.6,4
2012/9/8 21:01,1.9,3,2,4,3.6,3
2012/9/8 21:02,2,3,2,4,3.7,4
2012/9/8 21:03,2.1,3,2.1,4,3.6,4
2012/9/8 21:04,2,3,2.1,4,2.2,2
2012/9/8 21:05,1.9,3,1.9,4,3.6,4
2012/9/8 21:06,1.8,3,1.9,4,2.5,4
2012/9/8 21:07,1.8,3,1.8,3,2.2,3
2012/9/8 21:08,1.8,3,1.8,3,2.2,3
2012/9/8 21:09,1.8,3,1.8,3,2.9,3
2012/9/8 21:10,1.8,3,1.8,3,3.7,3
2012/9/8 21:11,1.9,3,1.9,3,3.2,3
2012/9/8 21:12,1.8,3,1.9,3,3.6,3
2012/9/8 21:13,1.7,3,1.8,3,2.9,4
2012/9/8 21:14,1.8,3,1.8,3,2.7,3
2012/9/8 21:15,1.8,3,1.8,3,2,3
2012/9/8 21:16,1.7,3,1.8,3,2,3
2012/9/8 21:17,1.8,3,1.8,3,2.6,3
2012/9/8 21:18,1.8,3,1.8,3,2.5,3
2012/9/8 21:19,1.8,3,1.8,3,2.1,2
2012/9/8 21:20,1.7,3,1.8,3,3.2,3
2012/9/8 21:21,1.7,3,1.7,3,2.6,3
2012/9/8 21:22,1.7,3,1.7,3,2.7,3
2012/9/8 21:23,1.7,3,1.7,3,3,3
2012/9/8 21:24,1.7,3,1.7,3,2.2,3
2012/9/8 21:25,1.7,3,1.7,3,1.8,1
2012/9/8 21:26,1.7,2,1.7,3,2.2,3
2012/9/8 21:27,1.6,2,1.7,3,2.2,2
2012/9/8 21:28,1.6,2,1.6,3,2.2,2
2012/9/8 21:29,1.7,2,1.7,3,3.6,2
2012/9/8 21:30,1.6,2,1.7,3,1.9,2
2012/9/8 21:31,1.5,2,1.6,3,2.2,2
2012/9/8 21:32,1.4,2,1.5,3,1.9,2
2012/9/8 21:33,1.3,2,1.4,3,1.1,3
2012/9/8 21:34,1.3,2,1.3,3,2.6,4
2012/9/8 21:35,1.3,2,1.4,3,2.2,4
2012/9/8 21:36,1.4,2,1.4,2,2.1,2